Dewpoint
45 45 42 41 42 43 44 44 45 47 47 47 47 48 47 46 43 43 41 41 37 31 30 28 26 24 25 24 19 19 18 15 16 6 7 3 8 6 5 3 3 2 0 0 -5 -3 -3 2 1 -3 1 3 5 5
45 45 43 42 44 45 46 46 46 47 48 47 47 47 46 44 41 41 39 41 41 34 31 28 26 29 29 30 27 25 19 18 22 14 11 9 7 5 4 4 4 1 -1 -1 -1 -3 2 5 3 5 5 4 5 5
45 45 45 45 46 45 46 46 47 47 48 47 47 46 44 41 39 38 39 37 35 30 25 22 25 28 24 19 26 23 25 26 23 23 17 14 9 11 6 3 1 2 3 1 1 1 0 5 7 7 8 6 8 7
46 46 46 46 46 46 47 47 47 48 48 48 47 44 42 39 36 37 35 34 31 26 21 19 25 27 22 17 18 29 28 28 26 23 18 15 11 10 1 0 -3 -2 -1 -2 1 -1 3 6 6 7 6 6 6 6
46 46 46 46 46 46 47 47 47 48 48 48 45 41 38 38 38 35 35 35 35 26 18 19 24 29 15 18 19 19 18 18 18 15 15 9 8 5 3 -3 -7 -1 -4 -6 -5 0 1 0 6 7 6 6 7 7
45 46 46 47 47 47 47 47 48 48 48 45 41 38 38 38 35 31 27 33 33 34 24 16 23 16 8 12 11 18 18 20 19 15 7 6 8 6 -3 -9 -3 -0 1 2 -2 1 2 6 3 6 6 6 7 7
45 46 46 47 47 47 47 48 48 48 46 42 38 39 38 37 32 27 24 29 30 32 24 17 16 14 7 9 6 7 14 15 14 8 3 2 0 -0 -5 -11 -4 -2 -2 -0 0 -0 -2 -0 1 6 6 6 7 7
45 46 46 47 47 47 48 48 48 47 42 39 38 39 36 33 31 27 22 25 31 24 16 13 9 5 6 4 -7 5 5 10 8 5 3 -2 -6 -8 -12 -6 -4 -4 -4 -3 -3 -1 0 2 1 2 4 5 4 4
45 46 46 47 47 48 48 48 47 42 39 38 39 38 33 26 24 30 23 15 11 18 8 1 -2 -5 3 2 3 2 -1 2 3 -1 -1 -7 -12 -15 -9 -7 -5 -4 -5 -5 -3 -3 -3 -3 -3 -1 1 2 2 2
46 46 46 47 47 48 48 48 42 39 39 39 34 31 24 27 29 29 17 10 5 3 2 2 -2 -9 0 0 -0 -1 -3 -1 -5 -3 -8 -12 -11 -5 -4 -4 -4 -4 -4 -3 -7 -8 -5 -6 -4 -2 -1 1 3 3
46 46 46 47 47 47 47 43 39 37 34 30 26 23 24 18 20 12 7 4 1 1 1 -0 -0 -4 -0 -1 -1 -1 -3 -2 -6 -5 -10 -14 -15 -9 -4 -5 -5 -4 -5 -4 -3 -3 -2 -3 -3 -2 -1 1 3 4
46 46 46 47 47 47 46 40 38 33 30 28 26 23 15 10 6 4 0 -0 0 -1 -1 -3 -3 -1 -1 3 -1 -1 -2 -2 -9 -3 -14 -17 -12 -6 -7 -5 -5 -6 -5 -6 -5 -4 -4 -3 -2 -1 -0 1 3 4
46 46 46 47 47 47 41 39 36 34 30 27 21 15 15 9 -2 -2 -10 -4 -5 1 -2 -3 -5 -3 -2 -0 -2 -2 -5 -7 -3 -12 -15 -15 -9 -6 -7 -7 -7 -7 -7 -8 -8 -6 -6 -5 -3 -2 -1 1 2 3
46 46 46 47 47 42 38 36 34 31 26 19 17 11 8 4 1 1 -0 -3 -0 -0 -3 -5 -5 -4 -5 -3 -8 -6 -9 -10 -13 -16 -17 -13 -11 -7 -7 -9 -10 -9 -9 -9 -9 -7 -8 -7 -5 -3 -1 1 2 2
46 46 47 47 41 38 36 33 28 22 19 13 14 8 3 2 2 1 -1 -2 -2 -3 -4 -6 -6 -7 -8 -8 -16 -16 -15 -16 -18 -19 -14 -13 -13 -10 -9 -9 -11 -10 -9 -10 -10 -8 -9 -7 -5 -4 -2 0 2 3
45 43 40 40 38 34 31 26 21 17 10 8 7 3 3 -2 -3 -2 -4 -5 -2 -4 -6 -9 -11 -10 -12 -13 -15 -17 -18 -19 -18 -16 -14 -14 -11 -9 -10 -10 -12 -12 -10 -11 -10 -9 -9 -8 -6 -4 -1 1 2 2
41 35 38 35 32 31 27 19 15 9 7 5 1 6 3 0 -3 -2 -3 -3 -2 -4 -8 -11 -15 -16 -17 -18 -17 -19 -18 -18 -15 -12 -12 -12 -10 -9 -10 -11 -12 -10 -9 -10 -10 -11 -11 -7 -4 -3 -3 -1 2 2
34 36 34 32 27 22 16 16 11 6 1 3 1 1 1 0 -3 -4 -4 -3 -1 -4 -9 -15 -12 -18 -22 -25 -23 -18 -15 -14 -13 -11 -10 -10 -10 -9 -10 -11 -11 -8 -9 -9 -11 -11 -9 -7 -7 -5 -2 -1 1 -1
34 33 32 32 26 18 12 10 11 1 1 2 2 2 -1 -4 -4 -4 -4 -6 -6 -7 -12 -15 -19 -21 -19 -16 -14 -14 -13 -11 -10 -9 -8 -8 -10 -11 -11 -11 -9 -9 -9 -10 -11 -11 -8 -6 -7 -4 -2 -1 -2 -2
36 33 31 28 24 14 8 7 12 4 1 2 3 1 1 -1 -4 -5 -5 -5 -9 -13 -15 -16 -16 -16 -15 -14 -13 -9 -6 -6 -8 -10 -11 -12 -11 -10 -8 -7 -8 -8 -9 -10 -10 -5 -5 -7 -6 -3 -2 -2 -4 -4
26 26 24 19 14 10 8 5 4 5 4 -0 2 1 -3 -2 -5 -7 -8 -6 -12 -14 -15 -13 -14 -14 -15 -13 -9 -7 -7 -7 -9 -9 -10 -10 -6 -7 -9 -9 -9 -6 -9 -10 -10 -9 -8 -7 -7 -5 -2 -7 -5 -6
25 25 18 19 10 8 4 7 4 4 0 0 -0 -0 -5 -6 -7 -7 -9 -11 -12 -11 -12 -13 -12 -12 -8 -5 -6 -8 -7 -8 -8 -8 -8 -7 -11 -11 -10 -9 -10 -10 -10 -10 -9 -8 -8 -7 -6 -2 -4 -5 -6 -7
24 21 17 15 7 5 2 7 2 3 -3 -3 -1 -3 -5 -6 -7 -8 -9 -10 -10 -10 -11 -10 -9 -8 -4 -7 -9 -10 -11 -9 -9 -9 -9 -10 -9 -10 -10 -10 -10 -10 -10 -10 -9 -8 -7 -6 -7 -5 -5 -7 -6 -7
19 12 9 6 4 -1 4 0 2 -1 -1 -2 -2 -5 -7 -7 -10 -8 -9 -11 -9 -7 -8 -8 -5 -4 -7 -9 -8 -9 -8 -8 -8 -9 -10 -11 -12 -12 -11 -11 -11 -11 -9 -8 -7 -7 -6 -7 -6 -7 -7 -7 -7 -8
16 7 8 2 4 2 0 -0 -1 -1 -4 -3 -6 -8 -9 -10 -9 -10 -13 -12 -12 -9 -7 -6 -5 -4 -5 -7 -8 -7 -7 -6 -9 -11 -12 -11 -12 -12 -13 -12 -12 -11 -10 -8 -8 -8 -8 -8 -7 -7 -7 -8 -8 -9
6 3 6 4 4 3 2 -4 -4 -6 -5 -7 -9 -12 -13 -11 -15 -26 -17 -14 -11 -9 -7 -5 -4 -5 -6 -6 -7 -8 -7 -6 -8 -12 -12 -12 -12 -12 -13 -13 -13 -12 -10 -6 -7 -8 -8 -8 -8 -8 -8 -8 -6 -6
4 1 3 6 3 1 -3 -2 -2 -7 -13 -16 -12 -12 -13 -25 -28 -21 -14 -12 -8 -7 -6 -4 -5 -5 -6 -6 -6 -5 -6 -7 -9 -11 -11 -10 -9 -10 -11 -11 -11 -10 -8 -5 -5 -6 -7 -8 -8 -8 -8 -8 -8 -9
3 4 1 1 -0 1 -9 -11 -14 -18 -12 -9 -12 -20 -26 -28 -25 -17 -13 -10 -6 -6 -5 -5 -5 -4 -5 -6 -7 -7 -9 -11 -13 -15 -17 -16 -15 -14 -12 -8 -5 -4 -2 -4 -2 -3 -5 -7 -7 -7 -7 -8 -9 -9
1 3 0 -7 -7 -9 -10 -11 -11 -7 -7 -10 -20 -21 -20 -15 -12 -7 -5 -6 -6 -4 -4 -5 -8 -12 -11 -13 -12 -12 -12 -13 -14 -18 -18 -18 -17 -15 -11 -10 -10 -9 -9 -10 -4 -4 -4 -1 -4 -7 -9 -11 -11 -10
2 3 -4 -9 -12 -14 -13 -13 -10 -10 -8 -10 -8 -8 -8 -7 -7 -10 -6 -7 -4 -3 -5 -7 -8 -9 -10 -11 -12 -13 -15 -14 -13 -15 -18 -18 -18 -16 -14 -12 -11 -11 -11 -12 -12 -15 -7 -10 -12 -16 -15 -14 -13 -12
2 -1 -9 -10 -11 -11 -12 -13 -12 -10 -11 -10 -12 -10 -9 -9 -9 -9 -5 -5 -6 -8 -7 -8 -9 -13 -11 -13 -14 -14 -15 -16 -15 -14 -14 -14 -13 -12 -12 -11 -9 -10 -10 -12 -13 -15 -17 -16 -18 -18 -17 -17 -17 -16
-4 -6 -10 -13 -11 -10 -13 -11 -10 -10 -9 -8 -9 -10 -8 -8 -14 -9 -8 -8 -8 -6 -3 -4 -8 -8 -11 -12 -14 -14 -8 -14 -15 -14 -13 -13 -13 -12 -10 -7 -8 -9 -11 -13 -14 -15 -16 -17 -17 -17 -17 -18 -19 -19
-10 -9 -10 -12 -11 -10 -10 -11 -12 -11 -9 -8 -8 -11 -11 -11 -18 -12 -10 -7 -5 -4 -5 -3 -4 -7 -11 -12 -12 -12 -5 -9 -8 -3 -1 0 1 1 -1 -5 -7 -9 -12 -12 -13 -15 -15 -16 -16 -17 -18 -18 -18 -19
Wind_Speed
24 23 21 20 21 21 20 20 21 20 21 20 19 17 4 6 8 6 4 11 7 6 5 8 6 5 5 4 7 7 7 2 3 2 2 4 5 3 3 1 0 1 4 1 2 2 3 13 2 4 4 8 10 10
25 24 22 22 21 22 22 21 21 21 19 19 18 5 6 6 10 7 6 2 5 7 4 2 4 3 4 6 7 3 4 4 3 2 4 2 4 2 2 5 2 1 2 1 1 1 1 3 8 2 4 8 8 12
26 25 25 23 23 23 23 23 22 21 19 18 16 7 5 10 11 8 4 4 3 3 5 2 2 2 5 4 4 4 3 2 3 2 2 3 6 3 5 3 4 3 11 1 4 4 7 2 1 6 5 9 12 12
26 26 25 24 24 24 23 23 23 22 19 18 9 5 8 10 8 3 4 3 3 2 3 3 1 3 0 10 3 7 4 4 1 2 5 8 5 7 3 5 5 5 6 7 1 7 7 5 8 11 10 10 11 12
28 27 26 26 26 25 24 23 23 22 18 15 2 4 6 2 7 10 7 3 1 3 3 3 1 3 8 6 7 3 2 4 2 4 4 1 4 5 5 6 6 7 5 4 2 8 6 10 11 10 13 13 13 13
30 29 28 28 28 27 25 23 23 22 18 6 2 1 4 10 11 3 2 2 4 2 1 3 1 5 10 9 9 8 8 4 2 3 5 4 5 3 4 4 7 9 9 8 4 14 11 6 10 14 13 14 14 11
31 31 30 28 27 27 27 25 23 21 8 7 5 6 10 12 4 2 2 1 0 1 2 3 1 5 9 4 5 7 6 5 4 4 5 4 7 6 4 4 9 10 12 10 12 14 4 10 10 15 13 14 14 12
32 31 30 29 28 28 27 25 21 9 11 10 10 11 11 14 13 3 9 4 5 7 5 2 3 2 12 6 6 9 7 4 8 4 4 4 4 5 5 7 8 11 13 4 16 13 10 13 12 13 13 13 13 13
33 32 31 29 28 28 26 22 12 15 14 13 15 17 5 2 3 3 11 15 15 7 5 4 3 4 12 6 4 6 5 5 3 4 4 5 4 5 2 6 9 11 10 12 16 12 11 12 14 14 14 13 13 14
35 33 31 29 28 27 23 16 19 18 17 17 5 3 3 1 4 10 6 3 8 9 7 5 1 5 7 7 3 9 4 2 3 3 4 5 3 6 4 5 6 10 12 12 12 15 17 17 17 17 16 14 12 13
36 34 31 28 27 26 20 24 26 25 10 3 4 3 3 3 2 4 3 4 4 4 5 2 2 4 5 2 3 3 3 2 2 1 3 2 3 1 5 7 9 9 11 12 10 11 12 13 14 16 17 15 13 13
35 34 31 28 27 24 18 29 30 7 7 9 10 7 3 5 3 2 2 1 4 3 1 2 2 1 3 2 1 2 2 3 1 1 3 3 4 2 5 7 9 12 11 15 13 13 15 14 14 14 14 14 13 13
33 32 30 28 26 17 32 29 16 32 20 6 5 4 1 4 3 5 6 2 2 3 1 4 2 2 3 4 1 2 2 1 1 2 2 4 2 4 4 7 11 11 11 14 16 14 16 16 14 11 14 14 14 12
29 29 29 26 17 34 31 33 34 16 7 4 4 5 1 4 3 3 4 4 3 4 2 2 2 2 3 2 2 1 1 1 0 3 4 6 3 7 7 7 8 14 13 14 16 16 17 17 17 15 13 13 12 12
25 26 25 18 36 34 35 27 20 8 5 5 4 4 3 5 6 5 5 5 3 3 3 4 4 2 3 2 3 1 0 3 5 3 3 4 7 6 8 9 10 13 13 15 14 15 18 17 15 15 14 14 12 11
20 3 5 35 35 33 30 20 9 5 5 5 5 7 9 8 5 3 3 4 2 4 4 4 3 2 1 1 1 3 3 5 3 3 6 9 11 8 9 9 11 12 12 14 13 14 16 15 14 15 15 12 11 10
7 4 29 38 35 27 15 7 5 7 6 5 4 9 6 9 8 5 3 3 5 5 2 3 2 2 4 0 2 6 4 4 4 9 11 10 11 12 11 10 12 11 12 13 12 15 15 14 13 11 12 13 12 11
2 22 37 39 26 10 5 6 6 6 6 5 6 6 4 5 9 5 4 3 3 3 4 3 6 3 3 3 3 3 7 8 9 10 10 11 12 13 10 10 12 10 12 11 12 13 11 11 12 10 11 12 10 12
18 30 33 24 9 8 6 5 6 7 6 5 8 6 6 8 8 8 7 6 6 5 10 3 2 2 3 5 4 5 6 6 8 7 6 8 10 12 12 11 8 9 10 10 13 12 11 10 10 9 9 9 8 10
33 32 21 15 8 6 6 5 4 8 5 5 5 6 6 6 5 6 6 4 3 3 2 2 3 3 4 4 7 6 6 5 6 9 8 8 12 11 5 5 8 9 8 10 11 10 6 7 7 9 10 8 11 12
19 9 17 9 6 11 7 4 6 5 7 6 6 3 5 3 3 2 2 2 1 2 3 5 4 4 6 4 4 4 5 4 6 6 9 10 5 5 5 7 8 4 5 8 7 9 9 8 9 11 5 10 9 9
6 13 5 7 7 6 8 9 7 5 5 6 4 3 5 4 3 2 0 1 3 3 6 6 5 4 3 4 3 5 4 3 3 5 9 9 6 7 6 7 7 7 8 7 6 7 8 9 11 7 8 9 10 10
12 7 6 5 7 6 5 2 5 4 5 6 3 4 2 2 1 0 1 3 4 4 5 6 4 4 3 1 2 3 5 5 5 5 5 6 6 6 6 6 6 7 8 7 6 7 7 11 12 12 8 9 9 10
10 6 5 4 6 6 5 4 4 6 5 3 3 3 3 3 1 1 3 3 3 2 7 8 8 5 1 2 3 3 3 7 5 4 3 4 6 6 6 8 9 8 8 8 7 7 8 9 12 10 10 10 11 11
6 4 4 5 4 7 6 7 5 5 5 5 5 3 4 2 3 3 3 3 4 6 8 8 10 9 8 5 3 4 4 7 5 6 5 4 4 5 6 6 7 8 6 5 7 8 10 10 10 11 11 11 14 16
5 2 2 4 6 4 8 7 7 7 7 5 3 4 3 4 4 4 4 6 7 8 9 11 12 10 8 8 5 5 5 8 5 4 5 6 6 4 6 7 9 9 4 4 8 10 11 12 13 13 12 13 15 14
5 2 3 5 5 8 7 6 5 5 5 7 9 8 5 5 5 4 3 5 5 6 8 9 10 8 5 4 4 4 6 8 8 5 3 6 8 9 9 7 9 9 11 11 9 11 10 12 12 12 13 13 12 12
4 2 8 5 5 3 7 6 5 4 5 6 11 6 9 6 3 5 6 7 6 11 10 7 4 4 4 4 5 6 4 2 3 5 7 8 10 10 10 9 8 14 10 8 9 6 9 12 12 14 12 10 11 9
5 4 5 7 5 7 6 3 3 2 2 9 4 5 4 3 2 3 4 8 12 13 11 8 4 4 4 3 3 4 4 5 3 4 6 5 4 4 4 4 10 9 8 8 11 13 13 10 7 1 4 6 8 7
3 3 4 5 5 4 4 3 2 1 3 3 2 3 2 1 1 2 7 12 15 14 11 8 8 10 7 8 6 7 7 10 10 8 8 9 7 5 10 12 13 11 8 6 8 9 10 6 8 7 7 6 7 6
3 3 6 7 6 3 1 3 3 1 3 4 4 3 3 1 3 5 11 10 10 10 11 9 9 10 9 10 10 8 9 10 14 14 12 12 14 15 14 12 12 10 8 6 6 5 6 6 6 7 7 7 7 7
4 4 7 6 4 1 4 2 3 4 5 3 4 4 3 2 3 6 9 15 13 14 16 12 11 11 15 12 11 9 4 6 11 12 12 13 16 17 13 12 9 7 7 7 7 5 4 6 7 7 8 8 8 8
5 5 8 8 5 3 0 2 5 3 4 3 3 3 2 2 5 2 5 10 12 16 17 16 13 9 9 14 14 12 11 11 10 11 12 12 13 9 6 7 7 7 8 9 9 7 7 8 9 9 9 9 10 10
Wind_Direction
290 295 296 300 300 308 307 303 302 304 308 310 312 315 266 308 323 319 253 189 197 236 242 197 203 205 257 229 282 296 319 293 316 261 229 238 232 220 246 148 196 282 321 237 98 260 255 347 8 72 302 315 318 329
283 287 289 288 291 299 301 298 300 301 304 305 307 290 292 298 312 322 250 186 184 242 275 218 216 284 266 266 272 245 250 268 257 253 248 283 270 213 224 262 82 236 261 323 152 255 176 349 98 264 264 301 313 319
275 280 283 284 287 292 296 298 297 296 299 300 303 291 301 309 304 291 250 166 113 288 292 313 177 105 77 21 271 284 260 321 257 172 35 278 260 176 237 187 118 49 17 64 183 57 321 158 263 339 288 312 316 315
269 273 276 278 281 286 289 290 291 291 295 297 283 297 318 315 306 259 166 155 122 134 264 248 84 110 66 344 264 224 273 303 336 235 238 239 241 31 72 82 84 356 342 334 68 20 35 138 10 348 336 326 326 326
267 269 271 273 276 280 284 285 286 286 289 295 214 321 319 31 114 100 97 74 98 186 259 269 118 56 8 5 27 28 259 278 267 275 243 66 51 70 77 77 49 358 11 359 350 0 305 291 338 352 339 331 327 323
262 264 268 271 274 277 279 280 279 282 288 171 129 303 157 141 133 107 118 76 47 112 226 268 27 22 358 6 31 38 18 17 360 28 78 65 10 67 99 91 34 8 3 347 338 321 289 302 329 354 331 329 320 339
257 260 262 264 268 272 274 273 270 276 189 139 135 146 155 152 104 145 151 275 302 134 222 277 257 20 349 356 35 12 13 41 42 72 63 63 24 46 62 94 349 350 341 329 6 348 352 356 319 325 328 327 324 317
254 256 260 265 268 271 273 271 266 231 147 135 144 147 138 129 123 104 17 40 119 108 58 259 303 67 8 6 341 4 1 43 37 90 66 69 34 53 74 347 1 354 340 4 345 333 304 313 321 330 330 328 335 334
253 254 256 261 266 270 272 268 251 149 137 144 143 124 95 70 125 114 126 71 58 68 124 76 21 323 354 18 3 352 10 63 17 72 68 79 47 60 352 355 359 353 347 319 323 324 333 335 328 329 331 335 332 328
254 252 252 257 260 265 266 267 146 136 140 124 90 142 151 104 317 135 28 44 35 17 35 83 282 333 3 353 337 355 11 66 68 42 92 75 86 134 56 12 351 349 340 337 346 344 337 331 328 324 321 316 315 315
258 254 250 251 255 259 260 154 142 123 93 112 128 126 82 16 82 44 88 61 10 68 29 48 65 327 13 350 305 23 334 320 91 342 109 96 142 317 340 353 351 334 341 335 321 309 312 306 308 313 318 320 321 320
263 257 250 247 250 250 189 158 150 113 136 137 118 84 72 42 72 126 66 75 52 145 76 84 353 285 313 12 320 1 324 26 136 84 95 167 187 285 339 321 333 340 328 336 333 323 325 320 316 313 310 315 319 319
266 258 251 249 247 223 156 162 143 121 110 82 71 82 76 3 141 197 182 169 175 157 57 6 347 8 346 32 297 5 19 82 22 45 211 182 194 233 314 335 322 324 329 331 331 328 328 324 321 318 317 319 322 326
275 260 251 247 237 153 150 143 132 117 93 97 137 154 196 153 123 140 126 121 116 114 97 81 111 62 19 37 2 35 346 34 178 233 225 179 307 301 279 314 322 322 321 326 326 326 327 325 322 318 317 316 324 332
298 270 253 233 149 147 141 123 98 71 79 99 111 155 124 111 67 97 101 116 89 104 110 111 84 63 35 98 42 96 335 248 224 234 186 278 301 291 296 299 310 311 313 321 321 326 324 322 318 316 319 320 327 336
304 27 122 137 133 126 116 88 54 74 66 80 86 103 125 104 129 135 110 114 116 112 106 79 106 90 82 74 185 205 164 232 206 216 277 295 302 286 290 290 302 295 298 309 311 319 318 318 317 312 312 322 332 348
131 106 137 127 124 109 78 79 71 56 80 77 80 71 108 89 120 127 127 125 145 140 115 123 140 171 121 84 238 193 217 182 238 277 282 277 285 287 295 296 304 297 303 310 312 319 315 311 317 326 338 335 333 349
193 149 142 134 124 86 63 52 85 78 79 89 97 112 73 77 114 111 113 116 155 115 137 137 125 156 200 214 245 221 231 253 256 265 275 286 291 292 287 283 296 287 296 305 314 311 308 319 332 329 327 329 340 348
163 152 152 139 99 92 84 59 61 93 71 76 91 85 85 93 74 91 99 81 82 96 116 100 123 208 234 211 247 262 253 251 286 286 273 289 300 303 300 300 280 284 290 308 318 309 301 299 305 307 314 323 353 341
149 139 117 87 66 84 84 62 72 91 111 117 97 105 92 93 106 92 94 82 95 114 106 161 202 203 209 229 216 241 261 262 287 301 296 302 309 313 304 297 300 302 292 311 316 315 303 340 339 328 315 354 354 340
96 87 49 61 60 59 79 82 68 80 101 91 114 83 90 105 106 118 114 12 116 170 209 211 211 229 212 232 213 221 264 259 257 255 282 293 291 353 321 313 307 276 311 313 313 318 340 336 321 317 332 342 325 339
98 88 79 54 76 69 70 25 93 91 74 115 101 92 120 144 153 137 33 164 225 216 195 185 197 195 228 270 228 217 245 226 235 256 308 327 324 327 321 316 326 317 309 301 304 305 311 310 302 310 342 323 339 329
94 66 63 74 86 63 110 354 83 55 104 160 139 106 114 133 124 201 223 236 259 232 203 202 193 183 203 192 220 262 216 211 238 246 288 310 300 298 304 311 315 301 300 300 304 305 303 313 331 315 334 331 323 321
55 62 68 77 86 107 123 74 90 99 110 148 144 125 150 145 131 137 243 244 233 173 197 207 183 181 182 228 245 271 247 204 227 249 272 276 295 299 302 295 298 289 277 281 291 296 304 304 318 321 310 308 310 307
106 32 89 84 115 122 116 129 128 117 124 151 140 149 161 152 162 197 239 244 207 216 218 198 199 210 236 262 255 242 206 191 222 274 292 223 255 297 317 314 305 300 287 286 304 307 302 300 295 293 294 297 298 295
94 19 81 126 147 117 147 134 156 140 129 134 132 131 139 140 169 221 217 198 195 197 190 195 208 217 235 227 233 223 223 198 187 239 273 221 216 261 295 316 328 328 286 281 308 295 296 304 305 300 296 297 306 320
113 114 65 38 87 112 102 84 112 124 133 152 162 159 146 168 206 219 188 198 164 189 182 179 180 195 218 207 190 177 165 177 200 228 249 248 253 243 234 260 288 289 290 287 277 277 297 307 301 296 293 292 285 286
87 124 128 118 94 43 116 110 135 132 137 139 138 163 159 172 154 171 184 175 146 138 136 124 127 157 166 183 171 159 185 206 267 292 287 274 253 244 235 241 251 299 328 311 294 321 316 296 289 287 288 294 303 309
65 83 98 90 79 56 52 70 105 88 96 165 113 141 166 208 175 147 160 159 147 149 157 169 176 132 121 117 139 172 193 197 204 220 226 239 273 271 203 245 286 288 292 297 312 331 314 301 339 23 326 311 313 318
105 19 89 63 60 54 359 347 69 357 37 80 82 98 81 209 230 175 146 155 172 190 194 190 180 183 208 205 227 234 228 214 210 212 224 235 243 260 287 293 297 295 294 286 301 324 337 356 355 6 2 1 1 360
83 93 80 62 72 21 354 333 317 44 44 51 29 80 112 305 294 216 202 197 185 161 166 186 195 200 202 207 213 227 247 222 217 227 239 257 272 276 273 272 275 274 273 262 276 310 328 338 337 335 339 340 338 339
46 60 116 102 116 181 351 32 38 60 23 50 22 17 21 357 253 210 202 170 179 200 212 205 211 227 216 221 212 211 222 176 194 215 231 249 263 267 261 255 255 246 236 238 249 270 294 303 309 307 307 307 306 305
87 70 81 104 116 158 179 84 46 74 42 52 26 359 327 255 251 258 194 202 195 203 203 205 210 204 197 197 205 210 214 215 220 232 248 259 275 296 204 205 217 231 233 243 246 253 272 282 291 290 288 287 290 292